DAL1421 KMCO-KBOS

Flight info

Callsign DAL1421
Flight time N/A
Altitude 41000
Route FATHE4 VIYAP Q87 JROSS ELLDE Q97 PAACK JAMIE Q133 JFK ROBUC3
Aircraft A359/H-SDE2E3GHIJ3J4J5LM1ORWXY/LB1D1

Departure

Time 2026-04-22 00:12
Airport Orlando International Airport (KMCO)

Arrival

Time N/A
Airport Boston Logan International Airport (KBOS)
Time Latitude Longitude Altitude Speed Heading
2026-04-21 23:43 28.42580 -81.29975 103 ft 0 kts 274°
2026-04-21 23:59 28.42579 -81.29964 100 ft 3 kts 274°
2026-04-21 23:59 28.42578 -81.29941 98 ft 3 kts 272°
2026-04-21 23:59 28.42578 -81.29918 100 ft 3 kts 265°
2026-04-22 00:00 28.42581 -81.29896 99 ft 3 kts 245°
2026-04-22 00:00 28.42589 -81.29882 100 ft 3 kts 191°
2026-04-22 00:00 28.42601 -81.29881 98 ft 3 kts 179°
2026-04-22 00:00 28.42622 -81.29882 102 ft 3 kts 180°
2026-04-22 00:01 28.42642 -81.29882 99 ft 3 kts 180°
2026-04-22 00:01 28.42662 -81.29882 102 ft 2 kts 180°
2026-04-22 00:01 28.42668 -81.29882 101 ft 0 kts 180°
2026-04-22 00:06 28.42666 -81.29882 102 ft 2 kts 180°
2026-04-22 00:06 28.42635 -81.29881 99 ft 6 kts 174°
2026-04-22 00:07 28.42597 -81.29852 99 ft 7 kts 111°
2026-04-22 00:07 28.42573 -81.29807 104 ft 7 kts 154°
2026-04-22 00:07 28.42512 -81.29796 102 ft 11 kts 176°
2026-04-22 00:07 28.42424 -81.29794 104 ft 14 kts 179°
2026-04-22 00:08 28.42314 -81.29792 102 ft 17 kts 180°
2026-04-22 00:08 28.42187 -81.29792 102 ft 20 kts 179°
2026-04-22 00:08 28.42038 -81.29791 101 ft 23 kts 179°
2026-04-22 00:08 28.41873 -81.29788 103 ft 25 kts 179°
2026-04-22 00:09 28.41691 -81.29786 102 ft 27 kts 179°
2026-04-22 00:09 28.41496 -81.29784 102 ft 29 kts 180°
2026-04-22 00:09 28.41288 -81.29783 103 ft 31 kts 179°
2026-04-22 00:09 28.41101 -81.29780 102 ft 24 kts 179°
2026-04-22 00:10 28.40922 -81.29778 101 ft 26 kts 179°
2026-04-22 00:10 28.40833 -81.29755 102 ft 9 kts 124°
2026-04-22 00:10 28.40822 -81.29673 104 ft 12 kts 92°
2026-04-22 00:10 28.40822 -81.29570 102 ft 9 kts 76°
2026-04-22 00:11 28.40846 -81.29562 100 ft 4 kts
2026-04-22 00:11 28.40887 -81.29560 101 ft 7 kts
2026-04-22 00:11 28.40963 -81.29561 103 ft 20 kts 359°
2026-04-22 00:11 28.41332 -81.29563 105 ft 90 kts 360°
2026-04-22 00:12 28.42196 -81.29576 103 ft 155 kts 359°
2026-04-22 00:12 28.42969 -81.29599 272 ft 177 kts 359°
2026-04-22 00:12 28.44612 -81.29526 1377 ft 174 kts 12°
2026-04-22 00:12 28.45833 -81.29130 1912 ft 196 kts 24°
2026-04-22 00:13 28.46673 -81.28664 2175 ft 208 kts 33°
2026-04-22 00:13 28.47984 -81.27758 2425 ft 232 kts 35°
2026-04-22 00:13 28.49399 -81.26764 2952 ft 243 kts 35°
2026-04-22 00:13 28.50886 -81.25786 3572 ft 251 kts 30°
2026-04-22 00:14 28.52590 -81.25254 4316 ft 257 kts 11°
2026-04-22 00:14 28.54373 -81.25091 5147 ft 256 kts
2026-04-22 00:14 28.56148 -81.25102 5842 ft 260 kts
2026-04-22 00:14 28.57972 -81.25198 6462 ft 265 kts 358°
2026-04-22 00:15 28.59819 -81.25436 7105 ft 268 kts 354°
2026-04-22 00:15 28.61686 -81.25735 7729 ft 271 kts 354°
2026-04-22 00:15 28.63568 -81.26016 8376 ft 274 kts 354°
2026-04-22 00:15 28.65445 -81.26281 8992 ft 277 kts 354°
2026-04-22 00:16 28.67377 -81.26550 9636 ft 280 kts 354°
2026-04-22 00:16 28.69325 -81.26817 10226 ft 285 kts 354°
2026-04-22 00:16 28.71346 -81.27093 10471 ft 301 kts 354°
2026-04-22 00:16 28.73479 -81.27384 10683 ft 316 kts 354°
2026-04-22 00:17 28.75691 -81.27685 10887 ft 330 kts 354°
2026-04-22 00:17 28.78024 -81.28004 11093 ft 343 kts 354°
2026-04-22 00:17 28.80436 -81.28334 11349 ft 354 kts 354°
2026-04-22 00:17 28.82901 -81.28671 11741 ft 358 kts 354°
2026-04-22 00:18 28.85391 -81.28950 12228 ft 360 kts 356°
2026-04-22 00:18 28.87903 -81.29172 12636 ft 364 kts 356°
2026-04-22 00:18 28.90414 -81.29383 13076 ft 367 kts 356°
2026-04-22 00:18 28.93009 -81.29602 13510 ft 370 kts 356°
2026-04-22 00:19 28.95558 -81.29818 13939 ft 373 kts 356°
2026-04-22 00:19 28.98167 -81.30042 14340 ft 376 kts 356°
2026-04-22 00:19 29.00774 -81.30303 14766 ft 377 kts 354°
2026-04-22 00:19 29.03391 -81.30591 15227 ft 377 kts 354°
2026-04-22 00:20 29.06008 -81.30884 15652 ft 379 kts 354°
2026-04-22 00:20 29.08638 -81.31177 15942 ft 380 kts 353°
2026-04-22 00:20 29.11280 -81.31438 15994 ft 381 kts 355°
2026-04-22 00:20 29.13898 -81.31612 15999 ft 382 kts 356°
2026-04-22 00:21 29.16546 -81.31768 15996 ft 382 kts 356°
2026-04-22 00:21 29.19205 -81.31923 15991 ft 382 kts 356°
2026-04-22 00:21 29.21866 -81.32081 15992 ft 382 kts 356°
2026-04-22 00:21 29.24535 -81.32240 15995 ft 382 kts 356°
2026-04-22 00:22 29.27191 -81.32399 15988 ft 382 kts 356°
2026-04-22 00:22 29.29850 -81.32558 15990 ft 382 kts 356°
2026-04-22 00:22 29.32504 -81.32718 15992 ft 382 kts 356°
2026-04-22 00:22 29.35127 -81.32876 15992 ft 382 kts 356°
2026-04-22 00:23 29.37786 -81.33036 16031 ft 383 kts 356°
2026-04-22 00:23 29.40463 -81.33197 16438 ft 385 kts 356°
2026-04-22 00:23 29.43139 -81.33358 16901 ft 386 kts 356°
2026-04-22 00:23 29.45830 -81.33520 17334 ft 387 kts 356°
2026-04-22 00:24 29.48522 -81.33682 17775 ft 389 kts 355°
2026-04-22 00:24 29.51196 -81.33843 18199 ft 390 kts 355°
2026-04-22 00:24 29.53921 -81.34008 18627 ft 392 kts 355°
2026-04-22 00:24 29.56654 -81.34174 18973 ft 395 kts 355°
2026-04-22 00:25 29.59407 -81.34341 19344 ft 396 kts 355°
2026-04-22 00:25 29.62169 -81.34508 19726 ft 397 kts 354°
2026-04-22 00:25 29.64936 -81.34672 20105 ft 398 kts 354°
2026-04-22 00:25 29.67709 -81.34831 20481 ft 399 kts 354°
2026-04-22 00:26 29.70492 -81.34990 20848 ft 401 kts 354°
2026-04-22 00:26 29.73243 -81.35147 21203 ft 402 kts 354°
2026-04-22 00:26 29.76044 -81.35308 21561 ft 403 kts 354°
2026-04-22 00:26 29.78855 -81.35469 21916 ft 404 kts 354°
2026-04-22 00:27 29.81671 -81.35630 22265 ft 406 kts 353°
2026-04-22 00:27 29.84495 -81.35793 22604 ft 407 kts 353°
2026-04-22 00:27 29.87340 -81.35956 22911 ft 409 kts 353°
2026-04-22 00:27 29.90198 -81.36120 23264 ft 411 kts 353°
2026-04-22 00:28 29.93016 -81.36282 23593 ft 412 kts 353°
2026-04-22 00:28 29.95883 -81.36447 23930 ft 413 kts 353°
2026-04-22 00:28 29.98764 -81.36613 24194 ft 415 kts 353°
2026-04-22 00:28 30.01659 -81.36780 24447 ft 416 kts 353°
2026-04-22 00:29 30.04563 -81.36948 24694 ft 418 kts 353°
2026-04-22 00:29 30.07481 -81.37116 24945 ft 420 kts 353°
2026-04-22 00:29 30.10371 -81.37283 25200 ft 422 kts 353°
2026-04-22 00:29 30.13315 -81.37453 25479 ft 424 kts 353°
2026-04-22 00:30 30.16264 -81.37623 25761 ft 425 kts 353°
2026-04-22 00:30 30.19234 -81.37795 26035 ft 427 kts 353°
2026-04-22 00:30 30.22210 -81.37967 26314 ft 428 kts 353°
2026-04-22 00:30 30.25197 -81.38139 26596 ft 430 kts 353°
2026-04-22 00:31 30.28193 -81.38313 26892 ft 432 kts 353°
2026-04-22 00:31 30.31160 -81.38485 27174 ft 434 kts 353°
2026-04-22 00:31 30.34182 -81.38660 27477 ft 436 kts 353°
2026-04-22 00:31 30.37223 -81.38837 27785 ft 438 kts 353°
2026-04-22 00:32 30.40277 -81.39014 28111 ft 440 kts 353°
2026-04-22 00:32 30.43335 -81.39192 28434 ft 442 kts 353°
2026-04-22 00:32 30.46414 -81.39368 28767 ft 444 kts 353°
2026-04-22 00:32 30.49517 -81.39534 29090 ft 446 kts 353°
2026-04-22 00:33 30.52631 -81.39698 29450 ft 448 kts 353°
2026-04-22 00:33 30.55720 -81.39860 29800 ft 450 kts 353°
2026-04-22 00:33 30.58863 -81.40026 30128 ft 453 kts 353°
2026-04-22 00:33 30.62023 -81.40193 30446 ft 455 kts 353°
2026-04-22 00:34 30.65195 -81.40361 30745 ft 457 kts 353°
2026-04-22 00:34 30.68388 -81.40530 31075 ft 459 kts 353°
2026-04-22 00:34 30.71553 -81.40698 31424 ft 460 kts 353°
2026-04-22 00:34 30.74768 -81.40868 31718 ft 462 kts 353°
2026-04-22 00:35 30.77988 -81.41040 32011 ft 464 kts 352°
2026-04-22 00:35 30.81223 -81.41212 32291 ft 466 kts 352°
2026-04-22 00:35 30.84478 -81.41385 32571 ft 468 kts 352°
2026-04-22 00:35 30.87697 -81.41556 32842 ft 470 kts 352°
2026-04-22 00:36 30.90973 -81.41732 33093 ft 472 kts 352°
2026-04-22 00:36 30.94259 -81.41911 33342 ft 474 kts 352°
2026-04-22 00:36 30.97561 -81.42093 33563 ft 476 kts 352°
2026-04-22 00:36 31.00884 -81.42276 33754 ft 479 kts 352°
2026-04-22 00:37 31.04224 -81.42463 33907 ft 480 kts 352°
2026-04-22 00:37 31.07576 -81.42662 34035 ft 482 kts 351°
2026-04-22 00:37 31.10930 -81.42878 34135 ft 483 kts 351°